Time,TemperatureF,DewpointF,PressureIn,WindDirection,WindDirectionDegrees,WindSpeedMPH,WindSpeedGustMPH,Humidity,HourlyPrecipIn,Conditions,Clouds,dailyrainin,SoftwareType,DateUTC
2016-02-08 00:07:00,50.7,48.6,30.28,West,267,8.0,12.0,92,0.01,,,0.00,meteohub,2016-02-08 00:07:00,
2016-02-08 00:12:00,50.7,48.6,30.27,SSW,205,7.0,14.0,92,0.01,,,0.00,meteohub,2016-02-08 00:12:00,
2016-02-08 00:17:00,51.1,48.6,30.27,West,279,3.0,14.0,91,0.01,,,0.00,meteohub,2016-02-08 00:17:00,
2016-02-08 00:22:00,51.1,48.6,30.27,South,191,7.0,14.0,91,0.01,,,0.00,meteohub,2016-02-08 00:22:00,
2016-02-08 00:27:00,51.3,48.4,30.27,West,269,4.0,14.0,90,0.01,,,0.00,meteohub,2016-02-08 00:27:00,
2016-02-08 00:37:00,51.4,48.6,30.27,South,190,2.0,13.0,90,0.01,,,0.00,meteohub,2016-02-08 00:37:00,
2016-02-08 00:42:00,51.3,48.4,30.27,SW,233,7.0,13.0,90,0.01,,,0.00,meteohub,2016-02-08 00:42:00,
2016-02-08 00:47:00,51.3,48.4,30.27,WSW,257,5.0,13.0,90,0.00,,,0.00,meteohub,2016-02-08 00:47:00,
2016-02-08 00:52:00,51.3,48.4,30.27,West,261,5.0,12.0,90,0.00,,,0.00,meteohub,2016-02-08 00:52:00,
2016-02-08 00:57:00,51.4,48.4,30.27,SW,217,0.0,12.0,89,0.00,,,0.00,meteohub,2016-02-08 00:57:00,
2016-02-08 01:07:00,51.4,48.4,30.27,WSW,239,8.0,16.0,89,0.00,,,0.00,meteohub,2016-02-08 01:07:00,
2016-02-08 01:12:00,51.4,48.4,30.27,SW,229,7.0,16.0,89,0.00,,,0.00,meteohub,2016-02-08 01:12:00,
2016-02-08 01:17:00,51.4,48.4,30.27,WSW,239,9.0,16.0,89,0.00,,,0.00,meteohub,2016-02-08 01:17:00,
2016-02-08 01:22:00,51.4,48.4,30.27,SW,217,4.0,14.0,89,0.00,,,0.00,meteohub,2016-02-08 01:22:00,
2016-02-08 01:27:00,51.4,48.6,30.27,WSW,245,5.0,14.0,90,0.00,,,0.00,meteohub,2016-02-08 01:27:00,
2016-02-08 01:32:00,51.4,48.6,30.26,SW,228,6.0,15.0,90,0.00,,,0.00,meteohub,2016-02-08 01:32:00,
2016-02-08 01:37:00,51.4,48.6,30.26,WSW,256,7.0,15.0,90,0.00,,,0.00,meteohub,2016-02-08 01:37:00,
2016-02-08 01:42:00,51.3,48.7,30.26,West,274,5.0,15.0,91,0.00,,,0.00,meteohub,2016-02-08 01:42:00,
2016-02-08 01:47:00,51.4,48.9,30.26,SSW,207,3.0,13.0,91,0.00,,,0.00,meteohub,2016-02-08 01:47:00,
2016-02-08 01:52:00,51.6,48.7,30.26,SW,235,3.0,13.0,90,0.00,,,0.00,meteohub,2016-02-08 01:52:00,
2016-02-08 01:57:00,51.6,48.7,30.27,West,262,5.0,13.0,90,0.00,,,0.00,meteohub,2016-02-08 01:57:00,
2016-02-08 02:02:00,51.8,48.7,30.26,SSW,204,5.0,15.0,89,0.00,,,0.00,meteohub,2016-02-08 02:02:00,
2016-02-08 02:07:00,52.0,48.6,30.26,West,260,10.0,14.0,88,0.00,,,0.00,meteohub,2016-02-08 02:07:00,
2016-02-08 02:12:00,52.2,48.7,30.26,SW,215,4.0,14.0,88,0.00,,,0.00,meteohub,2016-02-08 02:12:00,
2016-02-08 02:17:00,52.2,48.7,30.26,South,184,7.0,14.0,88,0.00,,,0.00,meteohub,2016-02-08 02:17:00,
2016-02-08 02:22:00,52.3,48.9,30.26,SW,222,6.0,14.0,88,0.00,,,0.00,meteohub,2016-02-08 02:22:00,
2016-02-08 02:27:00,52.3,48.9,30.27,WSW,238,9.0,14.0,88,0.00,,,0.00,meteohub,2016-02-08 02:27:00,
2016-02-08 02:32:00,52.3,48.9,30.27,SW,229,4.0,12.0,88,0.00,,,0.00,meteohub,2016-02-08 02:32:00,
2016-02-08 02:37:00,52.3,48.9,30.27,WNW,283,5.0,13.0,88,0.00,,,0.00,meteohub,2016-02-08 02:37:00,
2016-02-08 02:42:00,52.3,49.3,30.27,SSW,200,4.0,16.0,89,0.00,,,0.00,meteohub,2016-02-08 02:42:00,
2016-02-08 02:47:00,52.2,49.3,30.27,SW,229,8.0,20.0,90,0.00,,,0.00,meteohub,2016-02-08 02:47:00,
2016-02-08 02:52:00,52.0,49.5,30.26,WSW,243,2.0,20.0,91,0.00,,,0.00,meteohub,2016-02-08 02:52:00,
2016-02-08 02:57:00,51.6,49.5,30.27,South,186,2.0,20.0,92,0.00,,,0.00,meteohub,2016-02-08 02:57:00,
2016-02-08 03:02:00,51.4,49.3,30.27,SW,216,3.0,13.0,92,0.00,,,0.00,meteohub,2016-02-08 03:02:00,
2016-02-08 03:07:00,51.4,49.3,30.27,West,277,7.0,13.0,92,0.00,,,0.00,meteohub,2016-02-08 03:07:00,
2016-02-08 03:12:00,51.6,49.5,30.26,WSW,239,6.0,16.0,92,0.01,,,0.01,meteohub,2016-02-08 03:12:00,
2016-02-08 03:17:00,51.6,49.5,30.26,SW,233,6.0,16.0,92,0.01,,,0.01,meteohub,2016-02-08 03:17:00,
2016-02-08 03:22:00,51.6,49.5,30.26,WSW,243,3.0,16.0,92,0.01,,,0.01,meteohub,2016-02-08 03:22:00,
2016-02-08 03:27:00,51.6,49.5,30.26,SSW,211,3.0,16.0,92,0.01,,,0.01,meteohub,2016-02-08 03:27:00,
2016-02-08 03:32:00,51.8,49.6,30.26,WSW,243,14.0,14.0,92,0.01,,,0.01,meteohub,2016-02-08 03:32:00,
2016-02-08 03:37:00,52.0,49.5,30.26,WSW,238,7.0,14.0,91,0.01,,,0.01,meteohub,2016-02-08 03:37:00,
2016-02-08 03:47:00,52.2,49.6,30.26,WSW,252,6.0,15.0,91,0.01,,,0.01,meteohub,2016-02-08 03:47:00,
2016-02-08 03:52:00,52.3,49.5,30.25,SSW,205,10.0,15.0,90,0.01,,,0.01,meteohub,2016-02-08 03:52:00,
2016-02-08 03:57:00,52.3,49.5,30.25,WSW,239,7.0,15.0,90,0.01,,,0.01,meteohub,2016-02-08 03:57:00,
2016-02-08 04:02:00,52.5,49.6,30.25,WSW,245,7.0,12.0,90,0.01,,,0.01,meteohub,2016-02-08 04:02:00,
2016-02-08 04:07:00,52.5,49.5,30.25,WSW,248,7.0,12.0,89,0.01,,,0.01,meteohub,2016-02-08 04:07:00,
2016-02-08 04:12:00,52.7,49.5,30.25,SSW,205,2.0,12.0,89,0.00,,,0.01,meteohub,2016-02-08 04:12:00,
2016-02-08 04:17:00,52.7,49.5,30.24,SW,231,12.0,14.0,89,0.00,,,0.01,meteohub,2016-02-08 04:17:00,
2016-02-08 04:22:00,52.9,49.6,30.24,SW,215,7.0,14.0,89,0.00,,,0.01,meteohub,2016-02-08 04:22:00,
2016-02-08 04:27:00,52.9,50.0,30.24,West,278,3.0,14.0,90,0.00,,,0.01,meteohub,2016-02-08 04:27:00,
2016-02-08 04:32:00,52.7,49.8,30.24,WNW,295,2.0,14.0,90,0.00,,,0.01,meteohub,2016-02-08 04:32:00,
2016-02-08 04:37:00,52.9,50.0,30.24,West,274,7.0,14.0,90,0.00,,,0.01,meteohub,2016-02-08 04:37:00,
2016-02-08 04:42:00,52.9,50.0,30.24,WSW,249,10.0,11.0,90,0.00,,,0.01,meteohub,2016-02-08 04:42:00,
2016-02-08 04:47:00,52.9,50.0,30.24,West,276,1.0,11.0,90,0.00,,,0.01,meteohub,2016-02-08 04:47:00,
2016-02-08 04:52:00,52.9,50.0,30.24,WSW,252,7.0,11.0,90,0.00,,,0.01,meteohub,2016-02-08 04:52:00,
2016-02-08 04:57:00,52.9,50.4,30.25,SSW,208,4.0,19.0,91,0.00,,,0.01,meteohub,2016-02-08 04:57:00,
2016-02-08 05:07:00,52.7,50.2,30.25,WSW,252,9.0,19.0,91,0.00,,,0.01,meteohub,2016-02-08 05:07:00,
2016-02-08 05:12:00,52.7,50.4,30.25,SW,214,9.0,19.0,92,0.00,,,0.01,meteohub,2016-02-08 05:12:00,
2016-02-08 05:17:00,52.7,50.4,30.25,South,190,4.0,17.0,92,0.00,,,0.01,meteohub,2016-02-08 05:17:00,
2016-02-08 05:22:00,52.5,50.2,30.24,WSW,252,5.0,16.0,92,0.00,,,0.01,meteohub,2016-02-08 05:22:00,
2016-02-08 05:27:00,52.9,50.4,30.24,WSW,255,3.0,15.0,91,0.00,,,0.01,meteohub,2016-02-08 05:27:00,
2016-02-08 05:37:00,52.9,50.4,30.24,WSW,253,3.0,15.0,91,0.00,,,0.01,meteohub,2016-02-08 05:37:00,
2016-02-08 05:42:00,52.9,50.4,30.24,SW,223,4.0,17.0,91,0.00,,,0.01,meteohub,2016-02-08 05:42:00,
2016-02-08 05:47:00,52.9,50.4,30.24,West,264,9.0,17.0,91,0.00,,,0.01,meteohub,2016-02-08 05:47:00,
2016-02-08 05:52:00,52.9,50.4,30.25,SW,229,12.0,17.0,91,0.00,,,0.01,meteohub,2016-02-08 05:52:00,
2016-02-08 05:57:00,53.1,50.5,30.25,SW,222,6.0,19.0,91,0.00,,,0.01,meteohub,2016-02-08 05:57:00,
2016-02-08 06:12:00,53.2,50.7,30.25,SW,229,5.0,15.0,91,0.00,,,0.01,meteohub,2016-02-08 06:12:00,
2016-02-08 06:17:00,53.2,50.4,30.25,WSW,255,7.0,16.0,90,0.00,,,0.01,meteohub,2016-02-08 06:17:00,
2016-02-08 06:22:00,53.2,50.4,30.25,WSW,243,7.0,16.0,90,0.00,,,0.01,meteohub,2016-02-08 06:22:00,
2016-02-08 06:32:00,53.4,50.5,30.24,South,176,3.0,17.0,90,0.00,,,0.01,meteohub,2016-02-08 06:32:00,
2016-02-08 06:37:00,53.4,50.5,30.24,SW,218,4.0,17.0,90,0.00,,,0.01,meteohub,2016-02-08 06:37:00,
2016-02-08 06:42:00,53.4,50.5,30.24,WNW,302,7.0,17.0,90,0.00,,,0.01,meteohub,2016-02-08 06:42:00,
2016-02-08 06:47:00,53.8,50.5,30.25,SW,229,4.0,17.0,89,0.00,,,0.01,meteohub,2016-02-08 06:47:00,
2016-02-08 06:52:00,53.8,50.5,30.24,WSW,253,12.0,17.0,89,0.00,,,0.01,meteohub,2016-02-08 06:52:00,
2016-02-08 07:02:00,54.0,50.7,30.25,SW,219,12.0,17.0,89,0.00,,,0.01,meteohub,2016-02-08 07:02:00,
2016-02-08 07:12:00,54.0,50.7,30.25,SSW,203,7.0,17.0,89,0.00,,,0.01,meteohub,2016-02-08 07:12:00,
2016-02-08 07:17:00,54.0,50.7,30.25,SW,222,2.0,17.0,89,0.00,,,0.01,meteohub,2016-02-08 07:17:00,
2016-02-08 07:22:00,54.0,50.7,30.25,West,266,3.0,17.0,89,0.00,,,0.01,meteohub,2016-02-08 07:22:00,
2016-02-08 07:27:00,54.1,50.9,30.26,WSW,253,11.0,17.0,89,0.00,,,0.01,meteohub,2016-02-08 07:27:00,
2016-02-08 07:37:00,54.1,50.9,30.27,SW,233,7.0,15.0,89,0.00,,,0.01,meteohub,2016-02-08 07:37:00,
2016-02-08 07:42:00,54.0,51.1,30.27,SW,217,6.0,18.0,90,0.00,,,0.01,meteohub,2016-02-08 07:42:00,
2016-02-08 07:47:00,54.0,51.4,30.28,SW,217,3.0,18.0,91,0.00,,,0.01,meteohub,2016-02-08 07:47:00,
2016-02-08 07:52:00,53.6,51.3,30.28,WSW,252,2.0,18.0,92,0.00,,,0.01,meteohub,2016-02-08 07:52:00,
2016-02-08 07:57:00,53.4,51.1,30.28,South,191,6.0,16.0,92,0.01,,,0.01,meteohub,2016-02-08 07:57:00,
2016-02-08 08:02:00,53.2,51.3,30.27,SW,225,12.0,16.0,93,0.01,,,0.01,meteohub,2016-02-08 08:02:00,
2016-02-08 08:07:00,53.2,51.3,30.27,WSW,239,11.0,16.0,93,0.01,,,0.03,meteohub,2016-02-08 08:07:00,
2016-02-08 08:12:00,53.2,51.3,30.27,WSW,242,2.0,13.0,93,0.02,,,0.03,meteohub,2016-02-08 08:12:00,
2016-02-08 08:17:00,53.4,51.4,30.27,West,267,4.0,18.0,93,0.02,,,0.03,meteohub,2016-02-08 08:17:00,
2016-02-08 08:22:00,53.4,51.4,30.28,SW,235,10.0,18.0,93,0.02,,,0.04,meteohub,2016-02-08 08:22:00,
2016-02-08 08:27:00,53.4,51.1,30.28,WSW,242,5.0,18.0,92,0.03,,,0.04,meteohub,2016-02-08 08:27:00,
2016-02-08 08:32:00,53.4,51.4,30.28,West,266,4.0,17.0,93,0.03,,,0.04,meteohub,2016-02-08 08:32:00,
2016-02-08 08:37:00,53.6,51.6,30.29,WSW,238,6.0,17.0,93,0.03,,,0.05,meteohub,2016-02-08 08:37:00,
2016-02-08 08:42:00,53.6,51.6,30.29,WSW,245,3.0,17.0,93,0.04,,,0.05,meteohub,2016-02-08 08:42:00,
2016-02-08 08:47:00,53.6,51.6,30.28,WNW,285,9.0,14.0,93,0.04,,,0.05,meteohub,2016-02-08 08:47:00,
2016-02-08 08:52:00,53.8,51.8,30.28,SW,215,2.0,14.0,93,0.04,,,0.06,meteohub,2016-02-08 08:52:00,
2016-02-08 08:57:00,53.8,51.8,30.28,SW,231,8.0,14.0,93,0.04,,,0.06,meteohub,2016-02-08 08:57:00,
2016-02-08 09:07:00,54.1,51.8,30.28,WNW,283,4.0,14.0,92,0.04,,,0.06,meteohub,2016-02-08 09:07:00,
2016-02-08 09:12:00,54.1,51.8,30.28,WSW,239,13.0,14.0,92,0.02,,,0.06,meteohub,2016-02-08 09:12:00,
2016-02-08 09:17:00,54.3,51.8,30.28,West,274,2.0,14.0,91,0.02,,,0.06,meteohub,2016-02-08 09:17:00,
2016-02-08 09:22:00,54.3,51.8,30.28,SW,231,10.0,14.0,91,0.02,,,0.06,meteohub,2016-02-08 09:22:00,
2016-02-08 09:27:00,54.3,52.0,30.28,SW,217,7.0,14.0,92,0.02,,,0.06,meteohub,2016-02-08 09:27:00,
2016-02-08 09:37:00,54.3,52.0,30.29,WSW,252,5.0,16.0,92,0.01,,,0.06,meteohub,2016-02-08 09:37:00,
2016-02-08 09:42:00,54.1,51.8,30.29,West,270,1.0,15.0,92,0.01,,,0.06,meteohub,2016-02-08 09:42:00,
2016-02-08 09:52:00,54.1,51.8,30.29,WSW,248,7.0,15.0,92,0.01,,,0.06,meteohub,2016-02-08 09:52:00,
2016-02-08 09:57:00,54.1,52.2,30.29,SSW,208,4.0,14.0,93,0.00,,,0.06,meteohub,2016-02-08 09:57:00,
2016-02-08 10:07:00,54.1,52.2,30.28,WSW,237,4.0,14.0,93,0.00,,,0.06,meteohub,2016-02-08 10:07:00,
2016-02-08 10:12:00,54.1,52.2,30.28,WNW,285,6.0,16.0,93,0.00,,,0.06,meteohub,2016-02-08 10:12:00,
2016-02-08 10:17:00,54.3,52.3,30.29,SW,231,7.0,15.0,93,0.00,,,0.06,meteohub,2016-02-08 10:17:00,
2016-02-08 10:22:00,54.3,52.3,30.28,SW,216,4.0,15.0,93,0.00,,,0.06,meteohub,2016-02-08 10:22:00,
2016-02-08 10:27:00,54.3,52.3,30.28,SW,228,7.0,15.0,93,0.00,,,0.06,meteohub,2016-02-08 10:27:00,
2016-02-08 10:32:00,54.3,52.3,30.29,SW,232,8.0,14.0,93,0.00,,,0.06,meteohub,2016-02-08 10:32:00,
2016-02-08 10:37:00,54.7,52.2,30.29,WSW,250,4.0,13.0,91,0.00,,,0.06,meteohub,2016-02-08 10:37:00,
2016-02-08 10:42:00,54.9,52.3,30.29,SSW,201,8.0,16.0,91,0.00,,,0.06,meteohub,2016-02-08 10:42:00,
2016-02-08 10:47:00,54.9,52.0,30.30,SSW,198,7.0,16.0,90,0.00,,,0.06,meteohub,2016-02-08 10:47:00,
2016-02-08 10:52:00,54.9,52.0,30.30,WSW,237,3.0,16.0,90,0.00,,,0.06,meteohub,2016-02-08 10:52:00,
2016-02-08 10:57:00,54.9,52.0,30.29,SW,233,3.0,16.0,90,0.00,,,0.06,meteohub,2016-02-08 10:57:00,
2016-02-08 11:02:00,54.9,52.0,30.30,SW,231,3.0,17.0,90,0.00,,,0.06,meteohub,2016-02-08 11:02:00,
2016-02-08 11:07:00,54.9,52.0,30.30,WSW,238,4.0,17.0,90,0.00,,,0.06,meteohub,2016-02-08 11:07:00,
2016-02-08 11:12:00,54.9,52.3,30.30,SW,231,4.0,17.0,91,0.00,,,0.06,meteohub,2016-02-08 11:12:00,
2016-02-08 11:17:00,54.9,52.3,30.30,SSW,201,4.0,13.0,91,0.00,,,0.06,meteohub,2016-02-08 11:17:00,
2016-02-08 11:22:00,54.7,52.3,30.29,West,267,2.0,13.0,92,0.00,,,0.06,meteohub,2016-02-08 11:22:00,
2016-02-08 11:27:00,54.9,52.3,30.29,WSW,257,2.0,13.0,91,0.00,,,0.06,meteohub,2016-02-08 11:27:00,
2016-02-08 11:37:00,55.2,52.3,30.30,SW,232,4.0,15.0,90,0.01,,,0.06,meteohub,2016-02-08 11:37:00,
2016-02-08 11:42:00,55.0,52.2,30.30,SW,233,7.0,15.0,90,0.01,,,0.06,meteohub,2016-02-08 11:42:00,
2016-02-08 11:47:00,54.9,52.3,30.30,SW,235,12.0,15.0,91,0.01,,,0.06,meteohub,2016-02-08 11:47:00,
2016-02-08 11:52:00,54.7,52.2,30.30,West,259,3.0,16.0,91,0.02,,,0.07,meteohub,2016-02-08 11:52:00,
2016-02-08 11:57:00,54.5,52.5,30.30,WSW,256,4.0,16.0,93,0.02,,,0.07,meteohub,2016-02-08 11:57:00,
2016-02-08 12:02:00,54.3,52.3,30.30,SW,229,8.0,16.0,93,0.02,,,0.08,meteohub,2016-02-08 12:02:00,
2016-02-08 12:07:00,54.1,52.5,30.30,SW,232,3.0,14.0,94,0.03,,,0.09,meteohub,2016-02-08 12:07:00,
2016-02-08 12:12:00,54.1,52.5,30.29,SW,224,4.0,12.0,94,0.06,,,0.11,meteohub,2016-02-08 12:12:00,
2016-02-08 12:17:00,54.1,52.5,30.29,SW,214,6.0,13.0,94,0.06,,,0.12,meteohub,2016-02-08 12:17:00,
2016-02-08 12:22:00,54.1,52.5,30.29,WSW,246,1.0,13.0,94,0.07,,,0.13,meteohub,2016-02-08 12:22:00,